This is the latest recevied weather packets stored in our database for station/object YO8SDE-8. If no packets are shown the sender has not sent any weather packets the latest 1 day(s).
| Time | Temp. | Humidity | Pressure | Rain* | Wind** | Luminosity | Snow |
|---|---|---|---|---|---|---|---|
| 1778051159 | 21.67° C | 52% | 1001.4 hPa | 0 mm | - | - | - |
| 1778050859 | 21.11° C | 54% | 1001.4 hPa | 0 mm | - | - | - |
| 1778050559 | 20.56° C | 55% | 1001.4 hPa | 0 mm | - | - | - |
| 1778050259 | 20.56° C | 56% | 1001.4 hPa | 0 mm | - | - | - |
| 1778049959 | 20° C | 57% | 1001.2 hPa | 0 mm | - | - | - |
| 1778049659 | 19.44° C | 58% | 1001.4 hPa | 0 mm | - | - | - |
| 1778049359 | 18.89° C | 59% | 1001.4 hPa | 0 mm | - | - | - |
| 1778049059 | 18.89° C | 61% | 1001.4 hPa | 0 mm | - | - | - |
| 1778048759 | 18.33° C | 61% | 1001.5 hPa | 0 mm | - | - | - |
| 1778048459 | 17.78° C | 62% | 1001.4 hPa | 0 mm | - | - | - |
| 1778048159 | 17.78° C | 63% | 1001.5 hPa | 0 mm | - | - | - |
| 1778047859 | 17.22° C | 64% | 1001.5 hPa | 0 mm | - | - | - |
| 1778047559 | 16.67° C | 64% | 1001.6 hPa | 0 mm | - | - | - |
| 1778047259 | 16.67° C | 65% | 1001.6 hPa | 0 mm | - | - | - |
| 1778046959 | 16.11° C | 65% | 1001.3 hPa | 0 mm | - | - | - |
| 1778046659 | 16.11° C | 65% | 1001.5 hPa | 0 mm | - | - | - |
| 1778046359 | 16.11° C | 65% | 1001.5 hPa | 0 mm | - | - | - |
| 1778046059 | 16.11° C | 66% | 1001.5 hPa | 0 mm | - | - | - |
| 1778045759 | 15.56° C | 66% | 1001.5 hPa | 0 mm | - | - | - |
| 1778045459 | 15.56° C | 66% | 1001.5 hPa | 0 mm | - | - | - |
| 1778045159 | 15.56° C | 66% | 1001.5 hPa | 0 mm | - | - | - |
| 1778044859 | 15.56° C | 66% | 1001.5 hPa | 0 mm | - | - | - |
| 1778044559 | 15° C | 66% | 1001.6 hPa | 0 mm | - | - | - |
| 1778044259 | 14.44° C | 67% | 1001.6 hPa | 0 mm | - | - | - |
| 1778043959 | 14.44° C | 67% | 1001.5 hPa | 0 mm | - | - | - |
* Rain latest hour (hover to see other rain measurements)
** Current wind speed in m/s (hover to see current wind gust speed)